Hourly Data Report for October 17, 2015

All times are specified in Local Standard Time (LST). Add 1 hour to adjust for Daylight Saving Time where and when it is observed.

RANKIN INLET A
NUNAVUT

62°48'38.000" N
92°06'53.000" W
32.30 m
2303405
71083
YRT

Download Data

Hourly Data (October 2015)
Hourly Data Report for October 17, 2015
Temp Definition
°C
Dew Point Temp Definition
°C
Rel Hum Definition
%
Wind Dir Definition
10's deg

Wind Spd Definition
km/h
Visibility Definition
km
Stn Press Definition
kPa
Hmdx Definition


Wind Chill Definition


Weather Definition


TIME
00:00 Legend Double Dagger -6.5 -9.1 82 29 24 24.1 101.64   -14 Cloudy
01:00 Legend Double Dagger -6.3 -8.6 84 29 16 24.1 101.64   -12 LegendNANA
02:00 Legend Double Dagger -6.1 -8.7 82 29 19 24.1 101.60   -13 LegendNANA
03:00 Legend Double Dagger -5.1 -8.4 78 28 20 24.1 101.56   -12 Cloudy
04:00 Legend Double Dagger -5.0 -7.1 85 27 22 6.4 101.54   -12 Snow
05:00 Legend Double Dagger -5.1 -6.5 90 28 19 9.7 101.53   -12 Snow
06:00 Legend Double Dagger -5.3 -6.7 90 29 16 16.1 101.51   -11 Snow
07:00 Legend Double Dagger -5.7 -6.9 91 30 16 24.1 101.50   -12 Snow
08:00 Legend Double Dagger -5.7 -7.1 90 31 10 24.1 101.48   -10 Snow
09:00 Legend Double Dagger -5.6 -7.0 90 29 10 24.1 101.48   -10 Snow
10:00 Legend Double Dagger -4.7 -6.1 90 34 18 24.1 101.46   -11 Snow
11:00 Legend Double Dagger -4.2 -5.5 91 33 22 24.1 101.46   -11 Snow
12:00 Legend Double Dagger -4.1 -5.7 89 33 21 24.1 101.45   -11 Snow
13:00 Legend Double Dagger -4.2 -5.8 89 34 18 24.1 101.45   -10 Snow
14:00 Legend Double Dagger -4.4 -5.7 91 34 21 24.1 101.45   -11 Snow
15:00 Legend Double Dagger -4.4 -5.4 93 35 20 16.1 101.46   -11 Snow
16:00 Legend Double Dagger -5.7 -6.7 93 1 11 16.1 101.44   -10 Snow
17:00 Legend Double Dagger -6.4 -7.5 92 1 10 4.8 101.40   -11 Snow,Fog
18:00 Legend Double Dagger -8.2 -9.4 91 33 8 0.8 101.40   -12 Freezing Fog
19:00 Legend Double Dagger -8.5 -9.9 90 36 4 3.2 101.30   -11 Fog
20:00 Legend Double Dagger -8.8 -10.2 90 27 6 2.4 101.26   -12 Fog
21:00 Legend Double Dagger -10.5 -12.1 88 31 9 1.6 101.22   -15 Fog
22:00 Legend Double Dagger -9.7 -11.2 89 1 7 1.6 101.15   -14 Fog
23:00 Legend Double Dagger -9.5 -11.0 89 33 5 0.8 101.08   -12 Freezing Fog

Notes on Data Quality.

Legend

  • E = Estimated
  • M = Missing
  • NA = Not Available
  • ‡ = Partner data that is not subject to review by the National Climate Archives
Date modified: